FIN1802 LIPX-EFHK

Flight info

Callsign FIN1802
Flight time 2h 41m
Altitude 18000
Route OTZOM Y480 UPXUF L612 ADOSA/N0438F340 DCT BORMI DCT MALUG/N0451F390 DCT PINQI DCT ODLIV DCT RASAN DCT PENOR DCT ALAMI DCT OKEVU DCT EVADI Y370 DIVAM
Aircraft A319/M-SDE1E2E3FGIM1RWXY/LB1

Departure

Time 2026-04-20 17:11
Airport Verona Villafranca Valerio Catullo Airport (LIPX)

Arrival

Time 2026-04-20 19:53
Airport Helsinki Vantaa Airport (EFHK)
Time Latitude Longitude Altitude Speed Heading
2026-04-20 16:49 45.40416 10.90767 245 ft 0 kts 135°
2026-04-20 16:56 45.40423 10.90757 245 ft 3 kts 135°
2026-04-20 16:57 45.40433 10.90735 245 ft 3 kts 91°
2026-04-20 16:57 45.40431 10.90708 245 ft 3 kts 78°
2026-04-20 16:57 45.40426 10.90681 245 ft 3 kts 49°
2026-04-20 16:57 45.40415 10.90665 244 ft 0 kts 45°
2026-04-20 17:01 45.40415 10.90666 244 ft 1 kts 45°
2026-04-20 17:01 45.40436 10.90695 245 ft 8 kts 45°
2026-04-20 17:02 45.40490 10.90762 246 ft 10 kts 17°
2026-04-20 17:02 45.40546 10.90710 248 ft 10 kts 318°
2026-04-20 17:02 45.40564 10.90623 249 ft 11 kts 244°
2026-04-20 17:02 45.40497 10.90523 246 ft 17 kts 226°
2026-04-20 17:03 45.40407 10.90393 244 ft 19 kts 225°
2026-04-20 17:03 45.40336 10.90241 243 ft 18 kts 249°
2026-04-20 17:03 45.40302 10.90071 246 ft 17 kts 256°
2026-04-20 17:03 45.40310 10.89918 247 ft 16 kts 315°
2026-04-20 17:04 45.40390 10.89808 249 ft 15 kts 315°
2026-04-20 17:04 45.40391 10.89696 249 ft 14 kts 226°
2026-04-20 17:04 45.40320 10.89592 250 ft 15 kts 225°
2026-04-20 17:04 45.40247 10.89488 250 ft 15 kts 225°
2026-04-20 17:05 45.40166 10.89369 247 ft 18 kts 226°
2026-04-20 17:05 45.40075 10.89237 245 ft 20 kts 225°
2026-04-20 17:05 45.39964 10.89076 242 ft 25 kts 225°
2026-04-20 17:05 45.39841 10.88900 242 ft 26 kts 225°
2026-04-20 17:06 45.39718 10.88722 243 ft 25 kts 225°
2026-04-20 17:06 45.39595 10.88541 243 ft 26 kts 226°
2026-04-20 17:06 45.39465 10.88352 237 ft 28 kts 225°
2026-04-20 17:06 45.39332 10.88163 234 ft 29 kts 225°
2026-04-20 17:07 45.39193 10.87957 236 ft 29 kts 226°
2026-04-20 17:07 45.39053 10.87755 236 ft 28 kts 225°
2026-04-20 17:07 45.38946 10.87597 233 ft 15 kts 226°
2026-04-20 17:07 45.38870 10.87496 232 ft 10 kts 199°
2026-04-20 17:08 45.38836 10.87522 232 ft 0 kts 136°
2026-04-20 17:09 45.38832 10.87527 232 ft 3 kts 136°
2026-04-20 17:09 45.38804 10.87566 232 ft 8 kts 135°
2026-04-20 17:10 45.38756 10.87634 230 ft 11 kts 133°
2026-04-20 17:10 45.38769 10.87695 232 ft 0 kts 46°
2026-04-20 17:10 45.38771 10.87697 231 ft 1 kts 46°
2026-04-20 17:10 45.38774 10.87702 231 ft 1 kts 46°
2026-04-20 17:11 45.38825 10.87776 232 ft 36 kts 45°
2026-04-20 17:11 45.39192 10.88307 232 ft 111 kts 45°
2026-04-20 17:11 45.39874 10.89294 293 ft 161 kts 46°
2026-04-20 17:11 45.40600 10.90431 982 ft 154 kts 55°
2026-04-20 17:12 45.41151 10.91729 1549 ft 157 kts 65°
2026-04-20 17:12 45.41562 10.93261 1972 ft 176 kts 76°
2026-04-20 17:12 45.41741 10.95093 2359 ft 198 kts 90°
2026-04-20 17:12 45.41568 10.97128 2737 ft 223 kts 105°
2026-04-20 17:13 45.40922 10.99261 3242 ft 247 kts 123°
2026-04-20 17:13 45.39735 11.01158 3880 ft 265 kts 143°
2026-04-20 17:13 45.38220 11.02716 4793 ft 272 kts 142°
2026-04-20 17:13 45.36808 11.04547 5746 ft 279 kts 134°
2026-04-20 17:14 45.35568 11.06708 6686 ft 285 kts 126°
2026-04-20 17:14 45.34555 11.09160 7615 ft 290 kts 117°
2026-04-20 17:14 45.33635 11.11746 8557 ft 294 kts 117°
2026-04-20 17:14 45.32697 11.14356 9499 ft 299 kts 117°
2026-04-20 17:15 45.31772 11.17033 10332 ft 306 kts 111°
2026-04-20 17:15 45.31401 11.20110 10658 ft 329 kts 85°
2026-04-20 17:15 45.32041 11.23270 11182 ft 339 kts 58°
2026-04-20 17:15 45.33557 11.25811 11954 ft 339 kts 34°
2026-04-20 17:16 45.35654 11.27265 12787 ft 336 kts 10°
2026-04-20 17:16 45.37967 11.27359 13630 ft 333 kts 346°
2026-04-20 17:16 45.40077 11.26093 14384 ft 332 kts 323°
2026-04-20 17:16 45.41793 11.23897 15141 ft 333 kts 315°
2026-04-20 17:17 45.43468 11.21580 15911 ft 335 kts 314°
2026-04-20 17:17 45.45147 11.19251 16679 ft 338 kts 314°
2026-04-20 17:17 45.46854 11.16913 17453 ft 341 kts 316°
2026-04-20 17:17 45.48801 11.14950 18149 ft 347 kts 329°
2026-04-20 17:18 45.51061 11.13657 18784 ft 354 kts 342°
2026-04-20 17:18 45.53514 11.13151 19426 ft 362 kts 354°
2026-04-20 17:18 45.56041 11.12952 20051 ft 362 kts 346°
2026-04-20 17:18 45.58376 11.11810 20660 ft 358 kts 329°
2026-04-20 17:19 45.60449 11.09854 21298 ft 357 kts 317°
2026-04-20 17:19 45.62204 11.07335 21942 ft 358 kts 307°
2026-04-20 17:19 45.63742 11.04539 22582 ft 361 kts 311°
2026-04-20 17:19 45.65755 11.02338 23204 ft 371 kts 329°
2026-04-20 17:20 45.68273 11.01309 23753 ft 385 kts 351°
2026-04-20 17:20 45.70964 11.01808 24202 ft 402 kts 15°
2026-04-20 17:20 45.73469 11.03731 24653 ft 413 kts 27°
2026-04-20 17:20 45.75928 11.05848 25127 ft 413 kts 24°
2026-04-20 17:21 45.78527 11.07580 25624 ft 410 kts 15°
2026-04-20 17:21 45.81219 11.08758 26048 ft 409 kts 10°
2026-04-20 17:21 45.84015 11.09824 26523 ft 411 kts
2026-04-20 17:21 45.86767 11.10789 26998 ft 414 kts
2026-04-20 17:22 45.89578 11.11737 27455 ft 416 kts
2026-04-20 17:22 45.92423 11.12696 27906 ft 419 kts
2026-04-20 17:22 45.95271 11.13674 28366 ft 423 kts
2026-04-20 17:22 45.98141 11.14699 28835 ft 427 kts 11°
2026-04-20 17:23 46.00961 11.16278 29279 ft 438 kts 22°
2026-04-20 17:23 46.03568 11.18631 29719 ft 449 kts 33°
2026-04-20 17:23 46.05878 11.21713 30037 ft 459 kts 44°
2026-04-20 17:23 46.07808 11.25421 30390 ft 466 kts 51°
2026-04-20 17:24 46.09648 11.29272 30699 ft 468 kts 51°
2026-04-20 17:24 46.11505 11.33150 31034 ft 470 kts 51°
2026-04-20 17:24 46.13371 11.37050 31395 ft 473 kts 51°
2026-04-20 17:24 46.15240 11.40968 31732 ft 474 kts 51°
2026-04-20 17:25 46.17088 11.44844 32160 ft 474 kts 51°
2026-04-20 17:25 46.18974 11.48805 32661 ft 473 kts 51°
2026-04-20 17:25 46.20807 11.52662 33102 ft 472 kts 51°
2026-04-20 17:25 46.22657 11.56567 33567 ft 471 kts 51°
2026-04-20 17:26 46.24531 11.60532 33860 ft 471 kts 51°
2026-04-20 17:26 46.26356 11.64405 33903 ft 460 kts 51°
2026-04-20 17:26 46.28118 11.68157 33899 ft 454 kts 51°
2026-04-20 17:27 46.31717 11.75790 34241 ft 464 kts 51°
2026-04-20 17:27 46.33542 11.79657 34556 ft 465 kts 51°
2026-04-20 17:27 46.35368 11.83539 34903 ft 465 kts 51°
2026-04-20 17:27 46.37186 11.87417 35243 ft 465 kts 51°
2026-04-20 17:28 46.39001 11.91301 35573 ft 465 kts 52°
2026-04-20 17:28 46.40811 11.95182 35871 ft 465 kts 52°
2026-04-20 17:28 46.42625 11.99071 35894 ft 467 kts 52°
2026-04-20 17:29 46.46268 12.06898 35904 ft 467 kts 52°
2026-04-20 17:29 46.49292 12.13412 35914 ft 467 kts 52°
2026-04-20 17:30 46.52921 12.21236 35922 ft 466 kts 52°
2026-04-20 17:30 46.57135 12.30339 35935 ft 466 kts 52°
2026-04-20 17:31 46.60158 12.36900 35935 ft 466 kts 52°
2026-04-20 17:31 46.63731 12.44690 35932 ft 466 kts 52°
2026-04-20 17:31 46.65537 12.48628 36206 ft 465 kts 52°
2026-04-20 17:32 46.67328 12.52536 36601 ft 464 kts 52°
2026-04-20 17:32 46.69284 12.56240 36882 ft 459 kts 43°
2026-04-20 17:32 46.71578 12.59417 36938 ft 452 kts 33°
2026-04-20 17:33 46.76919 12.63966 36971 ft 443 kts 19°
2026-04-20 17:33 46.79733 12.65831 37173 ft 445 kts 19°
2026-04-20 17:33 46.82553 12.67720 37454 ft 446 kts 20°
2026-04-20 17:33 46.85371 12.69623 37737 ft 446 kts 20°
2026-04-20 17:34 46.88175 12.71526 38031 ft 446 kts 20°
2026-04-20 17:34 46.90997 12.73443 38295 ft 446 kts 20°
2026-04-20 17:34 46.93812 12.75350 38564 ft 445 kts 20°
2026-04-20 17:34 46.96622 12.77253 38794 ft 445 kts 20°
2026-04-20 17:35 46.99433 12.79154 38952 ft 446 kts 20°
2026-04-20 17:35 47.05076 12.82980 39006 ft 446 kts 20°
2026-04-20 17:36 47.10699 12.86817 39019 ft 446 kts 20°
2026-04-20 17:36 47.16312 12.90650 39028 ft 446 kts 20°
2026-04-20 17:37 47.21937 12.94492 39041 ft 446 kts 20°
2026-04-20 17:37 47.27574 12.98347 39052 ft 446 kts 20°
2026-04-20 17:38 47.33214 13.02213 39069 ft 447 kts 20°
2026-04-20 17:38 47.38841 13.06098 39067 ft 447 kts 20°
2026-04-20 17:39 47.44482 13.10001 39072 ft 448 kts 20°
2026-04-20 17:39 47.50133 13.13908 39066 ft 448 kts 20°
2026-04-20 17:40 47.55781 13.17810 39071 ft 448 kts 20°
2026-04-20 17:40 47.61437 13.21728 39072 ft 448 kts 20°
2026-04-20 17:41 47.67080 13.25660 39079 ft 449 kts 20°
2026-04-20 17:41 47.72743 13.29609 39078 ft 449 kts 20°
2026-04-20 17:42 47.78361 13.33554 39080 ft 449 kts 20°
2026-04-20 17:42 47.84019 13.37538 39080 ft 449 kts 20°
2026-04-20 17:43 47.89199 13.41182 39082 ft 449 kts 20°
2026-04-20 17:43 47.94858 13.45166 39075 ft 449 kts 20°
2026-04-20 17:44 48.00529 13.49162 39070 ft 449 kts 20°
2026-04-20 17:44 48.06141 13.53134 39067 ft 449 kts 20°
2026-04-20 17:45 48.11793 13.57140 39076 ft 449 kts 21°
2026-04-20 17:45 48.17443 13.61169 39069 ft 449 kts 21°
2026-04-20 17:46 48.23088 13.65195 39073 ft 449 kts 21°
2026-04-20 17:46 48.28739 13.69234 39071 ft 449 kts 20°
2026-04-20 17:47 48.34342 13.73260 39038 ft 445 kts 20°
2026-04-20 17:47 48.39928 13.77267 39038 ft 445 kts 20°
2026-04-20 17:48 48.45485 13.81272 39039 ft 446 kts 21°
2026-04-20 17:48 48.51126 13.85348 39042 ft 447 kts 21°
2026-04-20 17:49 48.56733 13.89406 39051 ft 447 kts 21°
2026-04-20 17:49 48.62348 13.93486 39056 ft 448 kts 21°
2026-04-20 17:50 48.67965 13.97568 39060 ft 447 kts 20°
2026-04-20 17:50 48.73804 14.00578 39056 ft 443 kts 13°
2026-04-20 17:51 48.79689 14.03360 39058 ft 443 kts 13°
2026-04-20 17:51 48.85575 14.06177 39059 ft 443 kts 13°
2026-04-20 17:52 48.91456 14.08992 39062 ft 443 kts 13°
2026-04-20 17:52 48.97303 14.11788 39066 ft 443 kts 13°
2026-04-20 17:53 49.03192 14.14600 39069 ft 443 kts 13°
2026-04-20 17:53 49.09077 14.17432 39071 ft 443 kts 14°
2026-04-20 17:54 49.14960 14.20285 39075 ft 443 kts 14°
2026-04-20 17:54 49.20839 14.23126 39070 ft 443 kts 14°
2026-04-20 17:55 49.26681 14.25944 39071 ft 442 kts 14°
2026-04-20 17:55 49.32555 14.28792 39074 ft 442 kts 14°
2026-04-20 17:56 49.38412 14.31647 39074 ft 442 kts 14°
2026-04-20 17:56 49.44278 14.34520 39072 ft 442 kts 14°
2026-04-20 17:57 49.50135 14.37384 39075 ft 442 kts 14°
2026-04-20 17:57 49.55983 14.40250 39073 ft 441 kts 14°
2026-04-20 17:58 49.61839 14.43131 39070 ft 441 kts 14°
2026-04-20 17:58 49.67688 14.46024 39069 ft 441 kts 14°
2026-04-20 17:59 49.73529 14.48906 39069 ft 440 kts 14°
2026-04-20 17:59 49.79369 14.51795 39068 ft 440 kts 14°
2026-04-20 18:00 49.85163 14.54676 39067 ft 440 kts 15°
2026-04-20 18:00 49.91001 14.57587 39070 ft 440 kts 15°
2026-04-20 18:01 49.96832 14.60493 39072 ft 440 kts 15°
2026-04-20 18:01 50.02660 14.63420 39073 ft 440 kts 15°
2026-04-20 18:02 50.06932 14.65569 39069 ft 440 kts 15°
2026-04-20 18:02 50.12762 14.68491 39071 ft 439 kts 15°
2026-04-20 18:03 50.18542 14.71398 39076 ft 439 kts 15°
2026-04-20 18:03 50.24370 14.74347 39077 ft 439 kts 15°
2026-04-20 18:04 50.30195 14.77299 39074 ft 439 kts 15°
2026-04-20 18:04 50.36011 14.80249 39068 ft 440 kts 15°
2026-04-20 18:05 50.44749 14.84702 39062 ft 440 kts 15°
2026-04-20 18:05 50.50576 14.87622 39073 ft 439 kts 14°
2026-04-20 18:06 50.56477 14.90175 39067 ft 439 kts 13°
2026-04-20 18:06 50.62361 14.92583 39065 ft 439 kts 13°
2026-04-20 18:07 50.68310 14.95089 39073 ft 440 kts 13°
2026-04-20 18:07 50.74182 14.97628 39066 ft 440 kts 14°
2026-04-20 18:08 50.80086 15.00199 39070 ft 440 kts 14°
2026-04-20 18:08 50.85998 15.02765 39069 ft 440 kts 14°
2026-04-20 18:09 50.91908 15.05332 39077 ft 441 kts 14°
2026-04-20 18:09 50.97838 15.07921 39084 ft 441 kts 14°
2026-04-20 18:10 51.03759 15.10491 39081 ft 441 kts 13°
2026-04-20 18:10 51.09705 15.12880 39084 ft 441 kts 12°
2026-04-20 18:11 51.15636 15.15191 39085 ft 441 kts 13°
2026-04-20 18:11 51.21596 15.17553 39084 ft 441 kts 13°
2026-04-20 18:12 51.26543 15.19561 39087 ft 441 kts 13°
2026-04-20 18:12 51.32496 15.21986 39088 ft 441 kts 13°
2026-04-20 18:13 51.38450 15.24399 39087 ft 441 kts 13°
2026-04-20 18:13 51.44397 15.26815 39092 ft 441 kts 13°
2026-04-20 18:14 51.50354 15.29249 39090 ft 441 kts 13°
2026-04-20 18:14 51.56268 15.31679 39094 ft 441 kts 13°
2026-04-20 18:15 51.62226 15.34126 39096 ft 442 kts 13°
2026-04-20 18:15 51.68189 15.36574 39097 ft 442 kts 13°
2026-04-20 18:16 51.74152 15.39034 39103 ft 442 kts 14°
2026-04-20 18:16 51.80109 15.41503 39103 ft 442 kts 14°
2026-04-20 18:17 51.86065 15.43980 39107 ft 442 kts 14°
2026-04-20 18:17 51.92018 15.46458 39117 ft 441 kts 14°
2026-04-20 18:18 51.97975 15.48944 39126 ft 441 kts 14°
2026-04-20 18:18 52.03889 15.51419 39132 ft 441 kts 14°
2026-04-20 18:19 52.09830 15.53906 39133 ft 441 kts 14°
2026-04-20 18:19 52.15769 15.56397 39134 ft 440 kts 14°
2026-04-20 18:20 52.21696 15.58897 39135 ft 440 kts 14°
2026-04-20 18:20 52.27617 15.61412 39133 ft 439 kts 14°
2026-04-20 18:21 52.33538 15.63919 39133 ft 439 kts 14°
2026-04-20 18:21 52.39449 15.66423 39132 ft 439 kts 14°
2026-04-20 18:22 52.45371 15.68940 39134 ft 438 kts 14°
2026-04-20 18:22 52.51266 15.71467 39129 ft 438 kts 14°
2026-04-20 18:23 52.57127 15.73995 39132 ft 438 kts 14°
2026-04-20 18:23 52.63031 15.76538 39139 ft 438 kts 14°
2026-04-20 18:24 52.68927 15.79066 39137 ft 438 kts 14°
2026-04-20 18:24 52.74834 15.81620 39142 ft 438 kts 14°
2026-04-20 18:25 52.80732 15.84179 39148 ft 438 kts 14°
2026-04-20 18:25 52.86579 15.86722 39153 ft 437 kts 14°
2026-04-20 18:26 52.92466 15.89280 39159 ft 437 kts 14°
2026-04-20 18:26 52.98340 15.91842 39162 ft 436 kts 14°
2026-04-20 18:27 53.04216 15.94429 39169 ft 436 kts 14°
2026-04-20 18:27 53.10078 15.97019 39175 ft 436 kts 14°
2026-04-20 18:28 53.15941 15.99600 39176 ft 435 kts 14°
2026-04-20 18:28 53.21789 16.02181 39180 ft 435 kts 14°
2026-04-20 18:29 53.27637 16.04780 39189 ft 434 kts 14°
2026-04-20 18:29 53.33481 16.07386 39190 ft 434 kts 14°
2026-04-20 18:30 53.39321 16.09986 39194 ft 434 kts 14°
2026-04-20 18:30 53.45161 16.12598 39202 ft 435 kts 14°
2026-04-20 18:31 53.51006 16.15215 39208 ft 435 kts 14°
2026-04-20 18:31 53.56849 16.17835 39211 ft 434 kts 14°
2026-04-20 18:32 53.62687 16.20466 39217 ft 434 kts 14°
2026-04-20 18:32 53.68520 16.23109 39217 ft 434 kts 14°
2026-04-20 18:33 53.74344 16.25754 39226 ft 433 kts 15°
2026-04-20 18:33 53.80169 16.28399 39229 ft 433 kts 15°
2026-04-20 18:34 53.85984 16.31057 39237 ft 433 kts 15°
2026-04-20 18:34 53.91794 16.33711 39235 ft 432 kts 15°
2026-04-20 18:35 53.97601 16.36377 39242 ft 432 kts 15°
2026-04-20 18:35 54.03397 16.39062 39245 ft 432 kts 15°
2026-04-20 18:36 54.09202 16.41739 39250 ft 432 kts 15°
2026-04-20 18:36 54.15000 16.44425 39250 ft 431 kts 15°
2026-04-20 18:37 54.20801 16.47115 39254 ft 432 kts 15°
2026-04-20 18:37 54.26560 16.49795 39256 ft 432 kts 15°
2026-04-20 18:38 54.32355 16.52500 39256 ft 432 kts 15°
2026-04-20 18:38 54.38153 16.55216 39265 ft 432 kts 15°
2026-04-20 18:39 54.43952 16.57940 39269 ft 432 kts 15°
2026-04-20 18:39 54.49762 16.60680 39269 ft 432 kts 15°
2026-04-20 18:40 54.55560 16.63420 39279 ft 432 kts 16°
2026-04-20 18:40 54.61346 16.66150 39274 ft 432 kts 16°
2026-04-20 18:41 54.67144 16.68901 39281 ft 431 kts 16°
2026-04-20 18:41 54.72926 16.71663 39287 ft 431 kts 16°
2026-04-20 18:42 54.78694 16.74434 39293 ft 430 kts 16°
2026-04-20 18:42 54.84433 16.77192 39297 ft 430 kts 16°
2026-04-20 18:43 54.90200 16.79963 39298 ft 430 kts 16°
2026-04-20 18:43 54.95966 16.82739 39300 ft 429 kts 16°
2026-04-20 18:44 55.01730 16.85529 39299 ft 430 kts 16°
2026-04-20 18:44 55.07489 16.88325 39299 ft 430 kts 16°
2026-04-20 18:45 55.13214 16.91114 39302 ft 430 kts 17°
2026-04-20 18:45 55.18980 16.93935 39302 ft 430 kts 17°
2026-04-20 18:46 55.24755 16.96761 39306 ft 430 kts 17°
2026-04-20 18:46 55.30529 16.99593 39308 ft 431 kts 17°
2026-04-20 18:47 55.36302 17.02431 39310 ft 431 kts 17°
2026-04-20 18:47 55.42082 17.05283 39311 ft 431 kts 17°
2026-04-20 18:48 55.47869 17.08148 39318 ft 432 kts 17°
2026-04-20 18:48 55.53655 17.11024 39322 ft 432 kts 17°
2026-04-20 18:49 55.59441 17.13916 39322 ft 432 kts 17°
2026-04-20 18:49 55.65112 17.17370 39327 ft 430 kts 29°
2026-04-20 18:50 55.70325 17.22558 39329 ft 430 kts 30°
2026-04-20 18:50 55.75540 17.27732 39335 ft 430 kts 30°
2026-04-20 18:51 55.80729 17.32881 39334 ft 430 kts 30°
2026-04-20 18:51 55.85948 17.38095 39334 ft 429 kts 30°
2026-04-20 18:52 55.91161 17.43324 39338 ft 429 kts 30°
2026-04-20 18:52 55.96364 17.48565 39338 ft 429 kts 30°
2026-04-20 18:53 56.01531 17.53784 39338 ft 429 kts 30°
2026-04-20 18:53 56.06727 17.59040 39337 ft 429 kts 30°
2026-04-20 18:54 56.11046 17.63424 39337 ft 428 kts 30°
2026-04-20 18:54 56.16229 17.68702 39343 ft 428 kts 31°
2026-04-20 18:55 56.21407 17.73994 39342 ft 428 kts 31°
2026-04-20 18:55 56.26585 17.79288 39347 ft 428 kts 31°
2026-04-20 18:56 56.31760 17.84601 39345 ft 428 kts 31°
2026-04-20 18:56 56.36912 17.89909 39345 ft 427 kts 31°
2026-04-20 18:57 56.42064 17.95236 39349 ft 427 kts 31°
2026-04-20 18:57 56.47259 18.00622 39349 ft 427 kts 31°
2026-04-20 18:58 56.52405 18.05987 39354 ft 426 kts 31°
2026-04-20 18:58 56.57514 18.11336 39353 ft 426 kts 31°
2026-04-20 18:59 56.62647 18.16709 39358 ft 426 kts 31°
2026-04-20 18:59 56.67780 18.22087 39356 ft 425 kts 31°
2026-04-20 19:00 56.72911 18.27488 39354 ft 425 kts 31°
2026-04-20 19:00 56.78022 18.32895 39356 ft 425 kts 31°
2026-04-20 19:01 56.83130 18.38317 39357 ft 424 kts 31°
2026-04-20 19:01 56.88229 18.43747 39358 ft 424 kts 31°
2026-04-20 19:02 56.93329 18.49194 39356 ft 424 kts 31°
2026-04-20 19:02 56.98428 18.54661 39365 ft 424 kts 31°
2026-04-20 19:03 57.03472 18.60071 39364 ft 423 kts 31°
2026-04-20 19:03 57.08570 18.65568 39354 ft 423 kts 32°
2026-04-20 19:04 57.13640 18.71050 39357 ft 423 kts 32°
2026-04-20 19:04 57.18720 18.76559 39360 ft 423 kts 32°
2026-04-20 19:05 57.23774 18.82060 39358 ft 422 kts 32°
2026-04-20 19:05 57.28891 18.87657 39351 ft 432 kts 32°
2026-04-20 19:06 57.34141 18.93406 39352 ft 442 kts 32°
2026-04-20 19:06 57.39448 18.99239 39351 ft 444 kts 32°
2026-04-20 19:07 57.44767 19.05104 39353 ft 444 kts 32°
2026-04-20 19:07 57.50080 19.10979 39357 ft 444 kts 32°
2026-04-20 19:08 57.58009 19.19799 39362 ft 444 kts 32°
2026-04-20 19:09 57.63330 19.25729 39363 ft 445 kts 32°
2026-04-20 19:09 57.68643 19.31680 39367 ft 445 kts 32°
2026-04-20 19:10 57.73966 19.37667 39369 ft 446 kts 32°
2026-04-20 19:10 57.79289 19.43685 39346 ft 447 kts 32°
2026-04-20 19:11 57.84668 19.49771 39354 ft 449 kts 32°
2026-04-20 19:11 57.89901 19.55696 39361 ft 430 kts 32°
2026-04-20 19:12 57.94955 19.61438 39361 ft 422 kts 33°
2026-04-20 19:12 57.99967 19.67173 39357 ft 421 kts 33°
2026-04-20 19:13 58.04971 19.72915 39355 ft 420 kts 33°
2026-04-20 19:13 58.09961 19.78653 39359 ft 420 kts 33°
2026-04-20 19:14 58.14953 19.84424 39365 ft 420 kts 33°
2026-04-20 19:14 58.19948 19.90233 39364 ft 421 kts 33°
2026-04-20 19:15 58.24942 19.96043 39372 ft 421 kts 33°
2026-04-20 19:15 58.29905 20.01831 39370 ft 421 kts 33°
2026-04-20 19:16 58.34890 20.07659 39376 ft 420 kts 33°
2026-04-20 19:16 58.39874 20.13501 39377 ft 420 kts 33°
2026-04-20 19:17 58.44853 20.19367 39379 ft 420 kts 33°
2026-04-20 19:17 58.49810 20.25233 39380 ft 419 kts 33°
2026-04-20 19:18 58.54776 20.31118 39375 ft 419 kts 33°
2026-04-20 19:18 58.59743 20.37015 39377 ft 418 kts 33°
2026-04-20 19:19 58.64672 20.42907 39376 ft 418 kts 33°
2026-04-20 19:19 58.69584 20.48796 39379 ft 418 kts 33°
2026-04-20 19:20 58.74519 20.54733 39377 ft 418 kts 34°
2026-04-20 19:20 58.79446 20.60670 39378 ft 417 kts 34°
2026-04-20 19:21 58.84370 20.66640 39382 ft 417 kts 34°
2026-04-20 19:21 58.89281 20.72605 39378 ft 417 kts 34°
2026-04-20 19:22 58.94186 20.78585 39376 ft 416 kts 34°
2026-04-20 19:22 58.99089 20.84574 39373 ft 416 kts 34°
2026-04-20 19:23 59.03832 20.90931 39373 ft 414 kts 44°
2026-04-20 19:23 59.07356 20.99679 39376 ft 412 kts 58°
2026-04-20 19:24 59.10344 21.09204 39369 ft 412 kts 58°
2026-04-20 19:24 59.13336 21.18744 39370 ft 412 kts 58°
2026-04-20 19:25 59.16324 21.28284 39368 ft 412 kts 58°
2026-04-20 19:25 59.19295 21.37842 39367 ft 412 kts 58°
2026-04-20 19:26 59.22241 21.47389 39364 ft 413 kts 58°
2026-04-20 19:26 59.25214 21.57057 39360 ft 413 kts 58°
2026-04-20 19:27 59.28158 21.66646 39185 ft 413 kts 58°
2026-04-20 19:27 59.29633 21.71460 38954 ft 412 kts 58°
2026-04-20 19:27 59.31102 21.76273 38516 ft 411 kts 59°
2026-04-20 19:27 59.32562 21.81072 37870 ft 409 kts 59°
2026-04-20 19:28 59.34021 21.85877 37223 ft 407 kts 59°
2026-04-20 19:28 59.35476 21.90676 36342 ft 411 kts 60°
2026-04-20 19:28 59.36941 21.95511 35466 ft 414 kts 60°
2026-04-20 19:28 59.38412 22.00369 34819 ft 411 kts 61°
2026-04-20 19:29 59.39860 22.05155 34256 ft 406 kts 61°
2026-04-20 19:29 59.40825 22.08356 33876 ft 401 kts 61°
2026-04-20 19:29 59.42215 22.12972 33262 ft 395 kts 61°
2026-04-20 19:29 59.43590 22.17539 32798 ft 384 kts 61°
2026-04-20 19:30 59.44946 22.22048 32123 ft 378 kts 61°
2026-04-20 19:30 59.46277 22.26483 31612 ft 373 kts 61°
2026-04-20 19:30 59.47583 22.30853 31072 ft 368 kts 61°
2026-04-20 19:30 59.48876 22.35199 30552 ft 364 kts 61°
2026-04-20 19:31 59.50144 22.39473 29985 ft 361 kts 61°
2026-04-20 19:31 59.51404 22.43732 29483 ft 358 kts 61°
2026-04-20 19:31 59.52651 22.47958 29004 ft 355 kts 61°
2026-04-20 19:31 59.53889 22.52159 28522 ft 353 kts 61°
2026-04-20 19:32 59.55119 22.56332 28057 ft 351 kts 61°
2026-04-20 19:32 59.56338 22.60475 27605 ft 349 kts 61°
2026-04-20 19:32 59.57566 22.64656 27148 ft 346 kts 61°
2026-04-20 19:32 59.58772 22.68760 26709 ft 345 kts 61°
2026-04-20 19:33 59.59970 22.72847 26274 ft 343 kts 61°
2026-04-20 19:33 59.61160 22.76916 25810 ft 341 kts 61°
2026-04-20 19:33 59.62333 22.80927 25570 ft 330 kts 61°
2026-04-20 19:33 59.63450 22.84756 25345 ft 316 kts 61°
2026-04-20 19:34 59.64532 22.88480 24867 ft 309 kts 61°
2026-04-20 19:34 59.65594 22.92148 24305 ft 306 kts 61°
2026-04-20 19:34 59.66636 22.95752 23711 ft 304 kts 60°
2026-04-20 19:34 59.67686 22.99380 23094 ft 303 kts 60°
2026-04-20 19:35 59.68733 23.02998 22643 ft 303 kts 60°
2026-04-20 19:35 59.69777 23.06604 22197 ft 302 kts 60°
2026-04-20 19:35 59.70818 23.10201 21761 ft 300 kts 60°
2026-04-20 19:35 59.71852 23.13787 21336 ft 299 kts 60°
2026-04-20 19:36 59.72878 23.17359 20902 ft 298 kts 60°
2026-04-20 19:36 59.73904 23.20937 20472 ft 297 kts 60°
2026-04-20 19:36 59.74921 23.24491 20046 ft 296 kts 60°
2026-04-20 19:36 59.75932 23.28026 19625 ft 295 kts 60°
2026-04-20 19:37 59.76942 23.31556 19203 ft 294 kts 60°
2026-04-20 19:37 59.77951 23.35087 18789 ft 293 kts 60°
2026-04-20 19:37 59.78955 23.38609 18346 ft 293 kts 60°
2026-04-20 19:37 59.79955 23.42129 17919 ft 291 kts 60°
2026-04-20 19:38 59.80942 23.45613 17511 ft 289 kts 60°
2026-04-20 19:38 59.81926 23.49087 17114 ft 287 kts 60°
2026-04-20 19:38 59.82907 23.52547 16712 ft 286 kts 60°
2026-04-20 19:38 59.83879 23.55985 16322 ft 285 kts 60°
2026-04-20 19:39 59.84845 23.59412 15934 ft 284 kts 60°
2026-04-20 19:39 59.85806 23.62828 15548 ft 283 kts 60°
2026-04-20 19:39 59.86768 23.66245 15158 ft 282 kts 60°
2026-04-20 19:39 59.87725 23.69647 14780 ft 282 kts 60°
2026-04-20 19:40 59.88677 23.73037 14381 ft 278 kts 60°
2026-04-20 19:40 59.89602 23.76347 13993 ft 275 kts 60°
2026-04-20 19:40 59.90528 23.79669 13587 ft 274 kts 60°
2026-04-20 19:40 59.91387 23.83045 13206 ft 273 kts 68°
2026-04-20 19:41 59.91973 23.86644 12818 ft 272 kts 71°
2026-04-20 19:41 59.92543 23.90234 12380 ft 272 kts 70°
2026-04-20 19:41 59.93109 23.93791 12083 ft 263 kts 70°
2026-04-20 19:41 59.93654 23.97225 11737 ft 257 kts 70°
2026-04-20 19:42 59.94191 24.00604 11270 ft 254 kts 70°
2026-04-20 19:42 59.94726 24.03942 10719 ft 253 kts 69°
2026-04-20 19:42 59.95583 24.06961 10266 ft 250 kts 50°
2026-04-20 19:42 59.96705 24.09632 9869 ft 250 kts 50°
2026-04-20 19:43 59.97828 24.12299 9503 ft 251 kts 50°
2026-04-20 19:43 59.98947 24.14958 9138 ft 249 kts 50°
2026-04-20 19:43 60.00060 24.17606 8786 ft 248 kts 50°
2026-04-20 19:43 60.01164 24.20239 8421 ft 247 kts 50°
2026-04-20 19:44 60.02265 24.22858 8056 ft 246 kts 50°
2026-04-20 19:44 60.03359 24.25465 7689 ft 244 kts 50°
2026-04-20 19:44 60.04448 24.28063 7311 ft 242 kts 50°
2026-04-20 19:44 60.05522 24.30628 6946 ft 240 kts 50°
2026-04-20 19:45 60.06590 24.33181 6550 ft 238 kts 50°
2026-04-20 19:45 60.07648 24.35713 6157 ft 236 kts 50°
2026-04-20 19:45 60.08693 24.38217 5777 ft 233 kts 49°
2026-04-20 19:45 60.09717 24.40677 5404 ft 225 kts 50°
2026-04-20 19:46 60.10700 24.43043 5031 ft 218 kts 49°
2026-04-20 19:46 60.11525 24.45033 4713 ft 215 kts 49°
2026-04-20 19:46 60.12515 24.47430 4339 ft 215 kts 49°
2026-04-20 19:46 60.13465 24.49723 3980 ft 213 kts 49°
2026-04-20 19:47 60.14400 24.51979 3916 ft 210 kts 49°
2026-04-20 19:47 60.15335 24.54236 3838 ft 211 kts 49°
2026-04-20 19:47 60.16271 24.56503 3755 ft 211 kts 49°
2026-04-20 19:47 60.17202 24.58761 3665 ft 206 kts 49°
2026-04-20 19:48 60.18087 24.60910 3581 ft 194 kts 49°
2026-04-20 19:48 60.18937 24.62973 3494 ft 190 kts 49°
2026-04-20 19:48 60.19769 24.65010 3420 ft 188 kts 49°
2026-04-20 19:48 60.20603 24.66972 3306 ft 180 kts 47°
2026-04-20 19:49 60.21424 24.68802 3089 ft 173 kts 47°
2026-04-20 19:49 60.22224 24.70558 2858 ft 169 kts 47°
2026-04-20 19:49 60.23016 24.72286 2620 ft 167 kts 46°
2026-04-20 19:49 60.23797 24.73988 2403 ft 164 kts 47°
2026-04-20 19:50 60.24542 24.75613 2177 ft 152 kts 47°
2026-04-20 19:50 60.25245 24.77147 1969 ft 147 kts 47°
2026-04-20 19:50 60.25926 24.78634 1773 ft 144 kts 46°
2026-04-20 19:50 60.26572 24.80046 1577 ft 127 kts 46°
2026-04-20 19:51 60.27145 24.81297 1411 ft 120 kts 46°
2026-04-20 19:51 60.27700 24.82511 1248 ft 117 kts 46°
2026-04-20 19:51 60.28250 24.83715 1077 ft 117 kts 46°
2026-04-20 19:51 60.28802 24.84925 887 ft 117 kts 46°
2026-04-20 19:52 60.29355 24.86139 728 ft 118 kts 44°
2026-04-20 19:52 60.29916 24.87370 559 ft 120 kts 46°
2026-04-20 19:52 60.30480 24.88600 393 ft 120 kts 45°
2026-04-20 19:52 60.31052 24.89854 243 ft 119 kts 46°
2026-04-20 19:53 60.31609 24.91079 149 ft 112 kts 44°
2026-04-20 19:53 60.32057 24.92061 156 ft 79 kts 47°
2026-04-20 19:53 60.32336 24.92675 171 ft 37 kts 47°
2026-04-20 19:53 60.32431 24.93018 174 ft 24 kts 70°
2026-04-20 19:54 60.32467 24.93307 174 ft 18 kts 78°
2026-04-20 19:54 60.32491 24.93527 172 ft 14 kts 76°
2026-04-20 19:54 60.32517 24.93762 171 ft 20 kts 78°
2026-04-20 19:54 60.32583 24.94019 171 ft 21 kts 46°
2026-04-20 19:55 60.32686 24.94243 172 ft 22 kts 47°
2026-04-20 19:55 60.32792 24.94476 174 ft 23 kts 47°
2026-04-20 19:55 60.32888 24.94686 175 ft 16 kts 47°
2026-04-20 19:55 60.32931 24.94817 177 ft 10 kts 89°
2026-04-20 19:56 60.32899 24.94899 175 ft 13 kts 147°
2026-04-20 19:56 60.32765 24.94997 177 ft 16 kts 162°
2026-04-20 19:56 60.32662 24.95064 180 ft 16 kts 162°
2026-04-20 19:56 60.32553 24.95135 180 ft 17 kts 160°
2026-04-20 19:57 60.32429 24.95218 178 ft 20 kts 163°
2026-04-20 19:57 60.32295 24.95348 176 ft 21 kts 139°
2026-04-20 19:57 60.32188 24.95548 174 ft 22 kts 137°
2026-04-20 19:57 60.32071 24.95764 174 ft 23 kts 137°
2026-04-20 19:58 60.31950 24.95987 169 ft 23 kts 138°
2026-04-20 19:58 60.31861 24.96160 164 ft 11 kts 113°
2026-04-20 19:58 60.31856 24.96286 164 ft 8 kts 76°
2026-04-20 19:58 60.31882 24.96367 164 ft 5 kts 55°
2026-04-20 19:59 60.31861 24.96426 163 ft 7 kts 140°
2026-04-20 19:59 60.31843 24.96459 163 ft 3 kts 136°
2026-04-20 19:59 60.31839 24.96468 163 ft 0 kts 136°